Change the Weather History Date:

Tuesday, September 3, 2013

  Actual Average Record
Temperature  
Mean Temperature 52 °F -  
Max Temperature 56 °F 59 °F 82 °F (1999)
Min Temperature 49 °F 45 °F 42 °F (2000)
Degree Days  
Heating Degree Days 12    
Growing Degree Days 2 (Base 50)    
Moisture  
Dew Point 52 °F    
Average Humidity 97    
Maximum Humidity 100    
Minimum Humidity 88    
Precipitation  
Precipitation 0.02 in 0.17 in - ()
Sea Level Pressure  
Sea Level Pressure 30.28 in    
Wind  
Wind Speed 13 mph ()    
Max Wind Speed 21 mph    
Max Gust Speed 26 mph    
Visibility 7.8 miles    
Events Rain    
Averages and records for this station are not official NWS values.
T = Trace of Precipitation, MM = Missing Value Source: Averaged Metar Reports

Daily Weather History Graph

Daily Weather History Graph

Search for Another Location

Airport or City:

Trip Planner

Search our weather history database for the weather conditions in past years. The results will help you decide how hot, cold, wet, or windy it might be!

Date:

Astronomy

Sep. 03, 2013 Rise Set
Actual Time 6:22 AM NDT 7:37 PM NDT
Civil Twilight 5:50 AM NDT 8:08 PM NDT
Nautical Twilight 5:12 AM NDT 8:46 PM NDT
Astronomical Twilight 4:31 AM NDT 9:27 PM NDT
Moon 4:26 AM NDT (9/3) 6:22 PM NDT (9/3)
Length of Visible Light 14h 18m
Length of Day
13h 14m
Waning Crescent, 4% of the Moon is Illuminated
Sep 3
Waning Crescent
Sep 5
New
Sep 12
First Quarter
Sep 19
Full
Sep 27
Last Quarter

Hourly Weather History & Observations

Time (NDT) Temp. Dew Point Humidity Pressure Visibility Wind Dir Wind Speed Gust Speed Precip Events Conditions
12:30 AM 50.0 °F 48.2 °F 94% 30.24 in 15.0 mi NE 17.3 mph 23.0 mph N/A   Overcast
1:30 AM 50.0 °F 48.2 °F 94% 30.25 in 15.0 mi ENE 12.7 mph - N/A   Overcast
2:30 AM 50.0 °F 48.2 °F 94% 30.25 in 15.0 mi ENE 13.8 mph 20.7 mph N/A   Light Drizzle
3:30 AM 50.0 °F 48.2 °F 94% 30.26 in 15.0 mi ENE 11.5 mph - N/A   Light Drizzle
4:17 AM 50.0 °F 50.0 °F 100% 30.27 in 8.0 mi NE 12.7 mph 18.4 mph N/A   Light Drizzle
4:30 AM 50.0 °F 50.0 °F 100% 30.27 in 8.0 mi NE 12.7 mph 20.7 mph N/A   Light Drizzle
5:30 AM 50.0 °F 50.0 °F 100% 30.27 in 5.0 mi ENE 12.7 mph - N/A   Light Drizzle
6:17 AM 50.0 °F 50.0 °F 100% 30.28 in 12.0 mi ENE 15.0 mph - N/A   Overcast
6:30 AM 50.0 °F 50.0 °F 100% 30.28 in 15.0 mi ENE 12.7 mph 18.4 mph N/A   Overcast
6:36 AM 50.0 °F 50.0 °F 100% 30.28 in 12.0 mi ENE 12.7 mph - N/A   Light Drizzle
7:30 AM 50.0 °F 50.0 °F 100% 30.29 in 12.0 mi ENE 11.5 mph - N/A   Light Drizzle
8:30 AM 51.8 °F 50.0 °F 94% 30.30 in 12.0 mi ENE 13.8 mph - N/A   Overcast
8:50 AM 51.8 °F 51.8 °F 100% 30.31 in 12.0 mi ENE 13.8 mph 20.7 mph N/A   Overcast
9:30 AM 53 °F 51 °F 91% 30.31 in 12 mi ENE 15.0 mph - - Rain Light Drizzle
9:30 AM 53.6 °F 51.8 °F 94% 30.31 in 12.0 mi ENE 15.0 mph 21.9 mph N/A   Overcast
10:30 AM 53.6 °F 51.8 °F 94% 30.32 in 12.0 mi East 13.8 mph 20.7 mph N/A   Overcast
11:30 AM 53.6 °F 51.8 °F 94% 30.33 in 8.0 mi East 15.0 mph 20.7 mph N/A   Light Drizzle
12:03 PM 53.6 °F 53.6 °F 100% 30.32 in 2.0 mi East 13.8 mph - N/A   Light Drizzle
12:30 PM 53.6 °F 53.6 °F 100% 30.32 in 1.2 mi East 11.5 mph - N/A   Light Drizzle
12:57 PM 55.4 °F 55.4 °F 100% 30.31 in 3.0 mi East 13.8 mph 21.9 mph N/A   Overcast
1:30 PM 53.6 °F 53.6 °F 100% 30.31 in 1.5 mi ESE 18.4 mph - N/A   Light Drizzle
1:53 PM 55.4 °F 53.6 °F 94% 30.32 in 4.0 mi East 15.0 mph 21.9 mph N/A   Overcast
2:30 PM 55.4 °F 53.6 °F 94% 30.30 in 8.0 mi ESE 17.3 mph - N/A   Overcast
3:30 PM 55 °F 53 °F 89% 30.30 in 15 mi ESE 15.0 mph - -   Partly Cloudy
3:30 PM 55.4 °F 51.8 °F 88% 30.30 in 15.0 mi ESE 15.0 mph 20.7 mph N/A   Overcast
4:30 PM 55.4 °F 53.6 °F 94% 30.30 in 12.0 mi ESE 12.7 mph 19.6 mph N/A   Overcast
5:07 PM 53.6 °F 53.6 °F 100% 30.30 in 6.0 mi ESE 16.1 mph - N/A   Light Drizzle
5:30 PM 53.6 °F 53.6 °F 100% 30.29 in 6.0 mi ESE 13.8 mph 25.3 mph N/A   Light Drizzle
6:30 PM 53.6 °F 53.6 °F 100% 30.28 in 3.0 mi ESE 12.7 mph 23.0 mph N/A   Light Drizzle
7:30 PM 51.8 °F 51.8 °F 100% 30.27 in 4.0 mi ESE 17.3 mph - N/A   Light Drizzle
7:37 PM 51.8 °F 51.8 °F 100% 30.27 in 2.0 mi ESE 16.1 mph 21.9 mph N/A   Light Drizzle
8:30 PM 51.8 °F 51.8 °F 100% 30.27 in 2.5 mi SE 17.3 mph - N/A   Light Drizzle
9:30 PM 53 °F 53 °F 99% 30.27 in 2 mi SE 17.3 mph - - Rain Light Drizzle
9:30 PM 53.6 °F 53.6 °F 100% 30.26 in 2.0 mi SE 17.3 mph 23.0 mph N/A   Light Drizzle
10:13 PM 53.6 °F 53.6 °F 100% 30.25 in 1.5 mi SE 20.7 mph 26.5 mph N/A Rain Light Rain
10:30 PM 53.6 °F 53.6 °F 100% 30.25 in 1.5 mi SSE 16.1 mph 24.2 mph N/A Rain Light Rain
11:02 PM 53.6 °F 53.6 °F 100% 30.24 in 2.0 mi SE 15.0 mph 20.7 mph N/A   Light Drizzle
11:30 PM 53.6 °F 53.6 °F 100% 30.23 in 0.8 mi SSE 18.4 mph - N/A   Light Drizzle